Theta_e
319 314 312 310 297 297 287 288 291 290 291 292 294 292 291 289 298 298 293 295 296 296 299 299 311 328 338 342 342 342 342 342 342 342 342 341 341 339 339 338 336 334 337 335 335 334 334 336 337
317 317 312 305 291 287 281 290 289 288 290 293 293 290 287 288 289 292 292 295 296 297 298 300 317 331 339 340 340 340 340 340 340 339 338 338 338 338 337 335 333 332 333 332 332 333 334 336 334
313 316 304 297 286 284 282 285 289 290 290 292 290 289 287 288 290 290 294 295 297 296 298 300 317 333 338 338 338 338 337 337 336 336 335 334 334 335 334 333 332 332 332 332 332 331 332 333 333
308 303 298 288 280 282 287 285 286 290 293 292 290 289 287 291 291 293 295 296 296 296 297 301 314 324 335 335 335 334 334 333 333 332 331 330 330 330 330 330 330 330 330 330 330 331 332 332 330
306 298 287 286 281 283 286 288 289 289 288 289 290 286 285 290 293 294 295 295 295 295 297 299 309 316 325 331 331 331 330 330 329 328 328 327 327 327 327 327 327 329 329 328 330 332 332 330 327
298 296 285 285 284 285 282 284 286 289 289 288 289 288 289 291 292 293 295 295 296 295 297 299 302 307 314 320 325 326 326 325 325 324 324 324 324 324 324 324 325 325 326 327 329 330 329 326 324
295 289 286 286 284 285 284 286 283 284 284 286 285 288 288 289 292 294 295 296 296 295 296 297 299 300 303 310 314 318 320 320 319 319 319 318 319 319 320 321 322 322 323 324 327 326 326 323 321
294 290 287 285 285 283 284 285 285 284 285 287 284 283 283 287 291 293 295 295 296 294 295 296 297 298 299 300 305 308 310 311 311 311 310 310 310 312 313 315 318 319 320 322 324 323 322 319 316
294 284 281 282 285 279 286 284 286 285 284 286 285 283 286 288 290 291 292 294 294 294 294 295 295 297 297 297 298 300 303 303 305 306 304 301 298 299 301 311 313 314 314 318 320 321 319 314 311
286 281 282 286 285 283 285 284 284 282 283 281 281 284 285 285 288 289 289 291 292 292 292 294 294 294 296 296 295 295 296 295 296 296 295 295 295 296 299 303 307 309 311 312 313 312 313 304 297
286 281 285 284 286 286 282 282 283 281 280 280 281 280 285 285 285 287 288 290 291 291 292 292 293 293 294 293 294 294 294 293 293 293 295 295 295 297 294 293 294 296 300 295 296 294 294 294 292
283 287 288 287 290 286 282 281 278 276 280 280 281 284 285 285 284 284 286 289 290 291 290 291 292 293 293 293 291 292 293 293 292 293 294 293 292 291 291 290 290 291 295 293 292 291 290 290 290
284 284 287 288 287 285 285 276 277 278 282 284 285 284 284 283 285 286 287 289 291 289 291 291 291 291 292 292 291 290 290 290 291 291 292 293 291 290 290 289 289 290 292 291 288 289 289 288 288
286 286 285 286 286 286 282 277 282 282 285 284 284 283 285 285 286 287 288 288 289 291 291 292 291 291 292 291 291 291 289 289 290 290 290 291 290 289 289 288 288 288 288 289 288 288 288 287 287
288 284 285 286 287 285 286 282 281 286 285 284 284 285 286 286 287 287 289 290 290 291 292 291 291 291 290 290 290 290 290 289 289 289 289 290 290 291 291 289 288 289 289 287 288 287 287 287 287
286 284 277 284 288 287 284 276 288 286 284 284 285 286 287 287 288 288 288 289 289 290 291 292 292 291 290 290 290 289 289 288 289 290 289 291 292 292 292 291 290 291 291 290 290 289 286 285 285
279 276 277 280 287 284 282 277 283 286 285 285 286 286 287 287 288 289 289 289 289 290 290 291 291 290 288 290 290 289 290 289 290 290 290 291 292 293 292 291 290 290 290 288 288 285 285 284 283
276 276 278 277 280 280 279 279 283 285 284 284 285 286 286 287 288 290 290 290 290 290 291 291 290 290 289 287 289 289 289 289 289 289 290 291 292 291 290 289 289 289 288 285 285 284 284 283 284
280 278 277 278 282 281 279 279 282 282 283 283 283 284 286 287 290 289 290 290 289 289 290 290 290 290 288 287 286 287 286 288 288 289 290 290 290 290 289 288 288 287 285 284 285 284 283 282 282
280 278 276 280 282 281 281 280 283 282 283 283 284 284 285 286 287 288 289 288 288 288 288 288 288 287 287 286 285 285 285 286 286 287 288 290 290 289 288 286 285 285 284 284 283 283 280 280 281
279 278 277 277 280 281 279 282 282 282 283 285 286 286 287 287 287 287 288 287 286 286 286 287 287 287 287 287 286 285 285 285 284 285 286 287 288 288 287 286 285 284 283 282 281 281 280 279 279
277 280 280 280 279 275 280 277 280 281 283 283 285 285 286 287 287 287 287 287 287 287 287 288 288 287 287 286 285 284 283 283 285 285 286 286 287 287 287 286 285 284 284 282 282 283 281 280 278
279 280 279 279 278 277 278 275 282 281 281 283 285 284 286 287 288 287 287 288 289 289 287 287 288 287 287 286 286 285 284 285 285 284 284 285 286 287 287 286 285 284 284 283 282 282 281 281 279
282 279 280 279 278 273 274 275 278 281 282 283 284 284 285 287 288 289 287 287 288 288 288 287 287 288 288 286 286 285 285 285 284 284 284 285 286 286 286 286 285 285 284 283 283 282 281 281 280
279 278 272 275 272 275 274 273 279 282 283 283 283 284 285 286 288 289 288 285 285 285 287 288 287 287 288 288 287 286 286 286 285 285 285 285 285 285 286 286 286 285 285 285 284 282 281 281 281
277 277 274 268 270 273 275 271 280 283 283 282 284 283 283 285 286 288 289 288 285 285 285 287 288 288 288 288 288 288 287 287 287 287 287 286 286 287 287 286 287 286 286 286 285 284 283 282 282
276 275 277 266 259 265 273 277 283 283 283 284 283 283 283 285 285 286 287 289 288 285 285 285 286 288 289 289 289 289 289 288 288 288 288 287 288 288 287 287 286 287 286 286 285 285 284 284 283
276 277 273 269 267 264 272 274 278 282 281 283 283 283 284 285 286 287 287 287 288 288 287 285 286 286 287 286 288 289 289 290 289 289 288 288 288 288 288 287 287 287 286 286 286 285 285 284 284
273 273 274 273 273 267 265 273 280 281 280 279 281 285 287 288 287 286 286 287 287 287 286 285 284 285 285 286 287 286 287 288 289 288 289 289 289 289 288 288 287 287 286 286 286 285 285 284 284
275 275 275 270 269 270 269 274 286 283 282 283 287 288 289 289 288 287 284 284 285 286 286 286 286 285 286 286 286 286 287 287 287 287 288 289 288 289 288 288 288 287 287 287 286 285 285 284 283
Wind_Speed
11 8 1 4 4 4 4 4 2 3 2 3 6 3 3 4 4 2 6 8 14 14 14 18 27 30 5 13 14 16 16 17 18 19 18 17 18 17 16 17 15 13 14 14 13 13 12 13 17
5 5 4 3 5 4 1 2 3 1 3 6 4 3 5 1 0 4 1 13 14 14 13 15 26 25 12 15 17 18 18 19 18 18 16 16 15 14 14 16 15 12 10 12 12 13 12 14 15
3 3 4 5 4 5 5 2 3 2 3 1 3 5 3 1 3 3 3 11 13 12 12 13 23 17 15 17 18 19 19 18 16 16 15 13 13 14 15 16 14 11 11 12 12 13 13 14 14
2 5 6 7 4 1 3 5 1 2 2 5 1 2 2 2 3 2 7 8 11 12 12 13 19 24 15 16 17 17 17 17 16 14 13 13 14 14 14 13 11 11 10 10 11 12 13 15 14
4 4 6 6 3 2 3 3 3 2 1 2 1 2 2 3 3 2 4 5 10 9 8 9 17 19 20 15 15 15 16 16 15 13 13 13 13 13 11 11 10 9 10 9 10 11 15 16 14
5 4 6 5 3 2 2 5 7 3 1 1 2 2 2 5 3 2 3 3 7 7 8 7 11 15 18 16 14 13 14 15 14 13 12 12 12 11 10 10 9 9 9 9 9 12 15 15 14
8 6 4 7 2 1 2 4 3 5 5 1 2 3 2 2 1 3 5 5 3 5 5 5 5 8 10 13 10 9 12 13 14 12 11 11 11 10 10 9 10 9 9 9 10 12 14 15 15
6 6 4 3 4 2 2 2 1 3 2 1 3 4 4 1 4 6 5 7 4 5 4 2 3 3 4 5 8 5 6 8 12 13 11 9 9 9 7 7 10 11 10 9 10 12 14 15 14
3 7 3 5 4 4 5 2 3 3 5 2 5 4 2 3 4 6 5 6 5 3 2 3 2 2 3 1 2 5 4 2 6 10 12 8 3 3 3 4 8 10 10 10 10 9 11 15 14
8 5 10 4 4 4 4 2 2 1 2 5 5 4 3 3 4 4 6 5 6 6 5 3 2 1 2 2 2 3 2 3 2 1 3 3 4 3 4 4 6 7 7 10 9 8 13 10 4
6 2 2 2 4 6 5 2 3 3 6 10 7 4 6 3 4 5 5 6 5 6 8 2 4 2 2 1 2 2 2 3 2 0 1 2 2 1 1 1 1 2 5 4 5 5 4 6 4
8 5 1 3 5 6 5 5 4 7 8 4 6 3 3 6 8 8 7 7 5 6 6 5 3 3 2 1 2 2 2 2 3 3 2 1 1 2 2 2 1 3 2 4 4 3 6 6 6
6 3 1 1 4 2 5 5 6 11 10 5 5 5 7 8 8 9 9 7 7 7 6 5 4 4 2 3 2 2 3 3 4 3 4 1 1 2 2 1 2 2 1 3 4 4 5 6 6
3 4 4 3 3 3 4 4 4 6 5 10 10 9 10 11 11 8 7 7 7 7 6 6 5 3 3 3 3 2 2 3 3 4 4 5 1 1 1 2 2 1 1 2 4 4 4 4 5
6 2 1 5 5 5 4 5 9 5 8 9 12 11 10 12 10 12 10 9 8 6 5 5 6 3 3 3 3 2 2 3 3 3 5 5 2 1 2 2 1 1 2 2 3 4 4 5 4
3 3 4 3 4 2 5 9 4 6 7 9 10 9 10 13 14 13 13 11 10 8 8 6 4 4 1 2 1 1 2 1 1 1 2 4 3 2 1 1 1 2 2 2 2 2 3 4 4
8 4 5 5 7 3 0 9 4 6 6 9 8 8 8 8 9 11 13 13 11 10 8 8 8 7 7 5 3 3 2 1 2 1 2 3 3 2 1 1 1 2 2 2 2 2 2 2 2
6 6 6 5 2 2 6 14 10 9 9 10 8 8 8 10 14 11 11 10 10 11 12 11 8 7 5 3 2 2 3 3 4 4 3 4 2 2 2 0 1 1 2 1 2 3 2 3 3
5 4 5 5 0 7 4 9 12 6 7 9 9 8 9 10 7 7 9 10 9 9 10 10 10 12 9 6 4 4 4 6 6 7 9 7 6 6 5 4 4 4 4 4 3 2 3 1 2
3 4 5 9 5 5 6 13 5 3 5 8 10 9 11 7 6 7 7 8 9 10 10 9 10 9 8 5 1 2 2 3 3 4 5 7 7 7 7 7 6 6 5 6 6 5 3 2 4
3 4 5 6 11 3 8 7 7 1 2 3 7 8 7 10 9 8 8 9 8 9 10 11 11 9 8 8 3 2 2 3 2 4 5 8 9 8 7 7 6 6 5 6 5 5 6 5 4
6 2 3 6 7 2 8 6 4 5 9 4 7 8 9 9 7 6 7 7 10 12 10 12 11 11 9 7 6 9 9 8 6 5 5 6 7 8 8 7 7 7 6 7 7 7 6 6 6
6 3 3 2 3 3 10 6 8 6 7 7 8 7 9 8 7 8 9 12 13 11 12 12 11 11 11 11 12 9 11 9 5 3 6 7 6 8 8 7 6 6 5 6 8 7 7 6 5
6 2 1 3 2 5 4 5 8 5 5 7 6 9 8 7 7 8 8 8 10 9 11 10 13 14 13 13 15 16 16 12 8 8 8 7 7 8 10 9 8 8 8 8 8 7 7 8 5
5 6 6 8 8 6 3 4 10 7 4 4 5 8 9 7 6 7 8 8 8 10 13 11 13 16 16 16 17 17 17 14 15 12 10 10 8 8 11 12 11 10 10 9 8 8 9 8 8
4 2 6 5 3 6 3 5 4 4 4 3 5 7 6 8 6 8 8 8 9 10 11 12 14 17 14 16 16 15 16 11 12 14 11 10 11 11 11 12 14 14 13 11 10 8 8 8 9
2 3 3 8 2 4 4 9 8 5 1 8 10 9 10 10 9 8 9 7 9 9 12 14 14 14 14 13 12 14 14 16 15 17 14 12 14 11 12 13 15 16 15 14 13 11 12 11 11
1 3 3 4 1 5 6 6 8 6 4 8 10 9 8 7 9 9 9 8 7 8 8 8 9 13 10 8 10 11 13 14 15 14 16 16 16 16 15 15 16 16 16 16 15 13 13 13 12
1 1 3 3 4 6 3 8 8 4 2 4 4 7 10 13 9 8 8 12 10 10 8 7 5 6 7 7 8 9 12 13 14 14 16 17 17 16 16 17 16 18 17 17 17 17 17 16 17
3 4 5 6 6 4 3 10 11 7 5 7 20 18 18 15 14 11 10 8 10 10 9 8 7 6 7 9 7 9 12 12 13 15 17 17 18 17 17 16 18 17 19 19 20 20 19 20 19
Wind_Direction
323 300 179 52 95 76 62 46 34 20 59 6 322 4 20 357 119 246 316 8 342 326 325 319 320 327 159 103 102 110 107 99 99 96 94 89 85 84 88 82 77 77 78 84 85 94 89 84 86
320 300 39 89 101 123 213 68 70 18 300 303 34 336 28 138 47 293 291 344 335 322 325 322 328 320 111 102 100 101 98 95 91 90 87 83 84 90 91 88 79 82 89 89 92 96 94 94 92
286 298 81 94 83 115 153 139 79 161 332 43 99 47 327 258 137 273 355 332 331 327 324 327 341 352 104 99 96 95 92 89 88 87 85 92 91 87 85 81 81 83 90 97 99 106 97 98 94
88 3 32 72 71 100 100 149 271 186 169 55 119 24 235 287 290 309 334 341 324 324 320 332 350 2 77 92 95 98 100 97 90 90 94 85 82 81 78 87 92 90 94 100 106 115 112 100 99
36 54 55 73 61 83 58 50 291 173 143 34 350 198 248 203 201 242 313 344 317 316 318 338 353 10 29 68 87 95 97 94 97 97 92 91 90 92 99 100 99 94 100 106 111 112 113 107 104
47 77 61 77 71 22 25 348 331 324 118 354 177 192 230 128 206 284 278 279 293 316 320 340 356 7 19 39 55 82 94 102 100 101 103 97 100 105 107 108 106 100 100 108 110 110 111 108 108
104 65 84 102 71 338 15 329 7 327 308 16 318 239 298 241 223 288 278 281 246 300 309 329 1 9 8 28 40 63 94 103 104 102 99 101 100 104 111 118 121 116 116 122 119 117 117 114 107
94 89 82 51 156 221 302 338 303 262 294 148 132 236 255 358 331 300 284 270 257 242 286 324 3 2 18 359 13 39 89 109 114 115 109 107 103 100 93 102 125 122 113 127 124 129 123 112 100
67 84 137 185 175 193 168 216 180 300 280 253 209 209 245 284 301 288 266 264 268 242 254 326 333 0 344 249 330 339 24 59 123 138 133 125 112 85 53 93 117 122 123 118 128 132 133 114 103
49 94 184 142 119 150 152 201 186 293 293 267 275 232 252 292 260 251 263 272 278 293 314 312 311 316 308 303 316 299 304 273 279 345 131 135 134 143 100 58 66 83 106 129 115 103 115 95 63
10 85 91 245 152 139 157 232 193 198 250 224 206 242 215 221 243 239 249 257 280 301 303 294 270 275 260 282 295 294 286 289 301 302 261 195 150 150 109 86 77 66 81 70 83 94 90 102 96
86 40 355 157 171 152 175 138 240 204 234 181 199 194 209 228 239 235 239 233 244 251 300 313 284 259 260 301 270 311 301 286 310 323 301 179 154 149 152 148 178 124 138 116 104 93 102 96 96
80 180 50 353 149 199 119 233 226 240 229 202 240 215 230 240 252 250 247 251 249 248 257 268 277 270 250 238 255 279 297 314 308 327 328 303 200 158 164 118 85 60 115 101 100 103 105 112 111
102 144 153 189 216 224 212 263 165 275 179 196 220 229 222 227 231 248 227 246 249 258 262 277 285 271 290 274 278 278 286 310 322 336 330 340 347 93 99 99 91 95 92 111 122 120 111 98 115
139 56 206 218 206 241 205 268 239 228 164 214 214 213 213 221 213 220 225 221 216 228 238 258 294 279 262 289 298 339 323 346 341 341 330 328 329 193 145 119 84 86 81 111 108 101 106 107 107
14 110 19 191 176 162 123 276 275 166 179 227 231 238 225 214 209 208 208 213 201 197 216 217 242 331 264 299 334 306 315 347 316 305 339 308 326 341 52 126 74 34 73 88 89 98 89 114 130
12 331 356 347 199 135 158 280 256 174 212 262 245 238 241 252 239 225 210 207 201 202 205 215 212 206 194 201 193 203 251 246 263 255 246 290 327 329 75 49 32 55 81 112 149 68 109 131 122
312 355 323 290 347 311 231 260 270 208 200 239 258 263 253 243 238 219 213 215 210 201 196 196 198 210 198 184 188 184 199 206 204 211 211 232 227 221 138 116 10 82 117 116 112 140 81 148 166
277 275 292 267 98 343 252 273 285 226 205 236 244 252 252 249 259 226 216 206 202 210 217 221 216 198 183 175 183 208 215 205 208 201 202 194 197 196 182 179 183 170 171 182 162 126 127 104 142
50 321 331 279 276 356 332 306 307 142 233 212 227 240 239 244 249 234 207 201 208 212 219 222 220 208 206 209 236 213 176 215 217 208 214 215 204 197 191 183 189 183 177 181 175 167 149 171 195
29 69 331 240 316 277 317 328 356 20 250 238 249 242 244 231 230 220 203 204 203 216 215 219 221 223 218 210 199 243 311 305 247 216 217 211 199 202 204 194 196 185 181 189 185 183 170 176 208
354 139 269 313 3 328 14 281 326 338 326 306 286 248 245 240 237 226 205 205 207 218 212 216 214 215 218 209 219 219 225 227 222 208 219 227 214 213 213 206 198 194 194 193 195 190 178 151 185
270 340 279 324 7 42 345 60 276 350 4 360 359 319 281 257 238 235 215 213 213 207 208 209 212 214 216 204 210 219 237 244 248 239 223 217 213 221 221 213 209 217 216 215 197 186 194 197 173
302 320 89 53 59 26 274 97 293 344 321 314 332 358 345 326 274 249 230 212 216 203 207 204 208 217 212 210 213 218 225 230 234 230 230 226 219 218 217 213 212 210 211 210 210 215 209 206 207
3 32 353 2 10 232 114 25 242 306 314 305 336 358 9 3 278 274 262 238 230 213 214 211 211 222 217 217 220 222 231 233 240 235 230 231 231 224 223 209 214 219 221 215 207 205 213 208 213
5 99 140 234 245 276 355 240 229 267 295 52 54 37 18 9 343 328 294 268 255 239 226 220 217 231 222 221 226 226 229 232 236 239 235 235 233 234 224 213 219 220 217 213 210 212 215 209 221
286 62 139 100 27 43 261 285 297 198 295 18 41 30 6 355 350 317 310 287 263 246 233 221 226 236 231 224 226 227 226 227 231 235 233 232 236 236 225 215 216 222 219 216 213 216 219 216 216
61 152 78 360 168 283 291 287 247 269 14 6 19 359 336 324 317 328 323 323 320 294 275 245 236 239 252 235 229 233 232 233 238 240 238 237 239 235 232 219 218 221 221 219 216 220 221 216 220
88 213 37 114 146 174 258 255 213 247 327 346 312 321 338 338 322 325 337 354 352 355 344 312 281 268 264 241 238 234 240 242 244 244 244 243 245 242 237 233 223 223 218 218 219 223 222 219 223
283 256 160 129 259 248 171 262 286 1 349 329 347 340 340 338 355 18 17 2 7 360 2 355 342 301 271 266 248 240 243 246 244 243 245 244 244 242 241 236 236 228 228 221 221 222 221 222 222